Location: Pinon Hills
(34.4429°N, 117.6403°W)
Time: 03:29:40
(UTC-08:00)

Amateur Radio Satellites - All Passes

Search period start: 18 December 2014 02:59
Search period end: 19 December 2014 02:59
Location: Pinon Hills, 34.4429°N, 117.6403°W

Satellite Date Start Highest point End Downlink Frequencies (MHz)
Time Altitude Azimuth
MOZHAYETS 4 18 Dec 03:11:38 03:15:08 22° 69° (ENE) 03:18:38
Gurwin Techsat 1B 18 Dec 03:27:00 03:31:31 29° 291° (WNW) 03:36:01 435.225
VERMONT LUNAR 18 Dec 03:37:08 03:40:38 71° 153° (SSE) 03:44:10 437.305
PHONESAT 2.4 18 Dec 03:37:17 03:40:46 45° 150° (SSE) 03:44:15 2401.200-2431.200
HORYU 2 18 Dec 03:46:44 03:50:53 37° 288° (WNW) 03:55:02 437.375
AIST 1 18 Dec 03:46:55 03:51:13 84° 84° (E) 03:55:27
ITAMSAT 1 18 Dec 03:51:52 03:52:41 10° 298° (WNW) 03:53:31 435.822/435.867
AO-7 18 Dec 03:54:49 04:03:08 64° 104° (ESE) 04:11:23 29.400- 29.500
JAS-2 18 Dec 04:20:38 04:25:40 34° 96° (E) 04:30:21 435.910
MOZHAYETS 4 18 Dec 04:48:01 04:52:07 31° 263° (W) 04:56:16
PRISM 18 Dec 04:57:24 05:01:26 45° 74° (ENE) 05:05:29 437.425
STRAND 1 18 Dec 05:06:42 05:10:48 25° 68° (ENE) 05:14:55 437.568
GONETS M04 18 Dec 05:13:27 05:22:02 59° 91° (E) 05:30:38
VERMONT LUNAR 18 Dec 05:15:52 05:19:09 35° 349° (N) 05:22:26 437.305
PHONESAT 2.4 18 Dec 05:16:01 05:19:30 44° 345° (NNW) 05:22:59 2401.200-2431.200
CUTE-I 18 Dec 05:16:47 05:20:57 23° 96° (E) 05:25:06 437.470
AO-7 18 Dec 05:48:43 05:55:15 26° 301° (WNW) 06:01:46 29.400- 29.500
CUBESAT XI-V 18 Dec 06:02:30 06:07:11 75° 258° (WSW) 06:11:52 437.345
SO-50 18 Dec 06:04:35 06:09:12 40° 56° (NE) 06:13:48 436.795
JAS-2 18 Dec 06:06:05 06:10:33 24° 294° (WNW) 06:14:44 435.910
Cubesat XI-IV 18 Dec 06:21:45 06:27:04 78° 285° (WNW) 06:32:22 437.490
PRISM 18 Dec 06:35:35 06:37:09 12° 267° (W) 06:38:44 437.425
STRAND 1 18 Dec 06:45:15 06:49:48 32° 262° (W) 06:54:22 437.568
VERMONT LUNAR 18 Dec 06:54:48 06:58:00 31° 7° (N) 07:01:11 437.305
PHONESAT 2.4 18 Dec 06:55:25 06:58:40 30° 2° (N) 07:01:56 2401.200-2431.200
CUTE-I 18 Dec 06:56:13 07:01:03 36° 290° (WNW) 07:05:52 437.470
GONETS M04 18 Dec 07:12:12 07:19:16 26° 288° (WNW) 07:26:24
SO-50 18 Dec 07:45:50 07:49:28 21° 250° (WSW) 07:53:04 436.795
COMPASS 1 18 Dec 07:51:48 07:53:20 12° 92° (E) 07:54:51 437.405
CUTE 1.7 + AOD 2 18 Dec 07:52:17 07:55:13 18° 94° (E) 07:58:08 437.475
SEEDS 18 Dec 07:52:47 07:55:17 15° 93° (E) 07:57:46 437.485
BRITE-PL 18 Dec 07:53:39 07:57:28 24° 97° (E) 08:01:30 437.365/2234.400
HO-68 18 Dec 08:18:32 08:25:22 47° 100° (E) 08:32:08 435.675
CINEMA 3 18 Dec 08:20:18 08:22:39 14° 93° (E) 08:25:02 145.822/145.860
Oscar 11 18 Dec 08:21:07 08:22:11 11° 92° (E) 08:23:14 145.826/435.025
VERMONT LUNAR 18 Dec 08:33:05 08:36:38 78° 23° (NNE) 08:40:10 437.305
GOMX 1 18 Dec 08:33:12 08:37:46 45° 100° (E) 08:42:39 467.674
PHONESAT 2.4 18 Dec 08:34:11 08:37:47 57° 19° (NNE) 08:41:22 2401.200-2431.200
CUSAT 1 18 Dec 08:46:10 08:48:11 15° 84° (E) 08:50:29 437.405
POLYITAN 1 18 Dec 08:50:18 08:51:00 10° 65° (ENE) 08:51:42 437.675
AAUSAT CUBESAT 2 18 Dec 08:51:38 08:55:49 58° 100° (E) 08:59:58 437.432
NANOSAT C BR1 18 Dec 08:54:06 08:55:33 12° 66° (ENE) 08:57:00 145.865
CANX-2 18 Dec 08:55:45 09:00:03 68° 284° (WNW) 09:04:19 2200.000
TIGRISAT 18 Dec 09:03:49 09:07:18 25° 70° (ENE) 09:10:52 435.000
UWE-3 18 Dec 09:03:58 09:07:25 21° 95° (E) 09:10:54 435.000/436.395/437.385
QB50P1 18 Dec 09:06:40 09:09:22 17° 68° (ENE) 09:12:04 145.935-145.965
FUNcube-1 18 Dec 09:10:03 09:13:21 20° 95° (E) 09:16:41 145.935
DOVE 4 18 Dec 09:10:39 09:15:25 86° 102° (ESE) 09:20:29 437.250
AISAT 18 Dec 09:18:18 09:20:01 12° 93° (E) 09:21:43 437.250
MaSat-1 18 Dec 09:20:57 09:22:52 21° 296° (WNW) 09:24:43 437.345
DANDE 18 Dec 09:24:11 09:27:02 38° 92° (E) 09:30:39 436.750
COMPASS 1 18 Dec 09:25:10 09:29:15 46° 286° (WNW) 09:33:18 437.405
DX 1 18 Dec 09:27:12 09:31:26 52° 101° (E) 09:35:40 434.975-435.025
SEEDS 18 Dec 09:27:16 09:31:12 36° 287° (WNW) 09:35:07 437.485
CUTE 1.7 + AOD 2 18 Dec 09:27:20 09:31:09 31° 288° (WNW) 09:34:57 437.475
UNISAT 6 18 Dec 09:30:44 09:34:55 52° 74° (ENE) 09:39:13 437.425
BRITE-PL 18 Dec 09:31:50 09:35:54 30° 288° (WNW) 09:40:15 437.365/2234.400
POPSAT HIP 1 18 Dec 09:33:43 09:37:32 35° 72° (ENE) 09:41:22 437.405
YUBILEINY 18 Dec 09:35:20 09:41:08 19° 68° (ENE) 09:46:54 435.215
Oscar 11 18 Dec 09:54:21 09:58:36 52° 285° (WNW) 10:02:49 145.826/435.025
CINEMA 3 18 Dec 09:55:25 10:00:01 52° 285° (WNW) 10:04:46 145.822/145.860
CUBEBUG 2 18 Dec 09:55:48 10:00:27 84° 283° (WNW) 10:05:11 437.445
DELFI C3 18 Dec 09:57:18 10:01:20 55° 285° (WNW) 10:05:20 145.870
50 SAT 18 Dec 10:00:17 10:04:01 32° 98° (E) 10:07:45 437.505
UKube-1 18 Dec 10:01:06 10:05:23 62° 285° (WNW) 10:09:38 .
HUMSAT D 18 Dec 10:02:13 10:06:23 44° 99° (E) 10:10:32 437.325/437.525
ANTELSAT 18 Dec 10:02:18 10:06:35 64° 259° (W) 10:10:58 437.575/2403.000
DUCHIFAT 1 18 Dec 10:02:38 10:06:49 81° 77° (ENE) 10:11:02 145.980
ESTCUBE 1 18 Dec 10:05:15 10:08:02 16° 94° (E) 10:10:49 437.505/2401.250
HO-68 18 Dec 10:06:47 10:12:44 30° 296° (WNW) 10:18:40 435.675
VELOX 1 18 Dec 10:10:50 10:15:09 51° 100° (E) 10:19:26 145.980
VERMONT LUNAR 18 Dec 10:12:08 10:14:41 19° 216° (SW) 10:17:15 437.305
GOMX 1 18 Dec 10:12:36 10:15:34 17° 291° (WNW) 10:18:39 467.674
PHONESAT 2.4 18 Dec 10:13:09 10:16:21 29° 213° (SSW) 10:19:34 2401.200-2431.200
BUGSAT 1 18 Dec 10:14:13 10:18:21 90° 77° (ENE) 10:22:27 437.445
QB50P2 18 Dec 10:14:18 10:18:30 70° 258° (WSW) 10:22:43 145.880/145.840
ZACube-1 18 Dec 10:17:45 10:22:14 66° 284° (WNW) 10:26:47 437.345
POLYITAN 1 18 Dec 10:22:17 10:26:25 55° 259° (W) 10:30:34 437.675
NANOSAT C BR1 18 Dec 10:26:53 10:30:57 49° 260° (W) 10:35:03 145.865
CUSAT 1 18 Dec 10:28:32 10:31:00 19° 291° (WNW) 10:33:55 437.405
AAUSAT CUBESAT 2 18 Dec 10:30:36 10:30:56 10° 295° (WNW) 10:31:16 437.432
UWE-3 18 Dec 10:39:53 10:43:56 32° 288° (WNW) 10:48:02 435.000/436.395/437.385
TIGRISAT 18 Dec 10:40:32 10:43:58 23° 265° (W) 10:47:27 435.000
QB50P1 18 Dec 10:41:11 10:44:58 33° 262° (W) 10:48:47 145.935-145.965
FUNcube-1 18 Dec 10:45:41 10:49:41 32° 288° (WNW) 10:53:45 145.935
O/OREOS (USA 219) 18 Dec 10:47:46 10:52:14 62° 69° (ENE) 10:56:43 437.305
AISAT 18 Dec 10:52:35 10:56:51 49° 286° (WNW) 11:01:08 437.250
SPROUT 18 Dec 10:53:11 10:53:40 10° 92° (E) 10:54:09 437.525
RS-15 18 Dec 10:56:47 11:07:01 47° 109° (ESE) 11:17:09 29.354- 29.394
TISAT 1 18 Dec 10:56:52 10:58:43 13° 93° (E) 11:00:35 437.305
DX 1 18 Dec 11:05:35 11:07:11 12° 295° (WNW) 11:08:48 434.975-435.025
CUBEBUG 1 18 Dec 11:07:44 11:12:05 85° 103° (ESE) 11:16:25 437.445
POPSAT HIP 1 18 Dec 11:11:03 11:13:31 15° 266° (W) 11:15:59 437.405
UNISAT 6 18 Dec 11:11:08 11:12:02 11° 269° (W) 11:12:55 437.425
YUBILEINY 18 Dec 11:30:06 11:38:46 77° 266° (W) 11:47:26 435.215
Oscar 19 18 Dec 11:35:26 11:39:04 20° 67° (ENE) 11:42:43 437.125/150
50 SAT 18 Dec 11:36:18 11:38:58 17° 291° (WNW) 11:41:39 437.505
HUMSAT D 18 Dec 11:39:37 11:41:46 14° 293° (WNW) 11:43:55 437.325/437.525
ESTCUBE 1 18 Dec 11:40:52 11:45:01 37° 288° (WNW) 11:49:08 437.505/2401.250
VELOX 1 18 Dec 11:49:24 11:51:15 13° 294° (WNW) 11:53:06 145.980
ITUPSAT 1 18 Dec 12:10:36 12:12:31 12° 92° (E) 12:14:25 437.325
SWISSCUBE 18 Dec 12:10:40 12:13:08 14° 93° (E) 12:15:35 437.505
SPROUT 18 Dec 12:25:50 12:30:01 53° 285° (WNW) 12:34:12 437.525
JUGNU 18 Dec 12:28:44 12:32:10 16° 170° (S) 12:35:36 437.505
ISS 18 Dec 12:29:18 12:30:33 12° 126° (SE) 12:31:47 145.825
TISAT 1 18 Dec 12:30:43 12:34:42 42° 287° (WNW) 12:38:41 437.305
BEESAT 18 Dec 12:34:59 12:38:52 25° 96° (E) 12:42:43 436.000
AIST 2 18 Dec 12:49:34 12:51:36 13° 108° (ESE) 12:53:38 435.215
BEESAT 3 18 Dec 12:54:38 12:58:26 40° 114° (ESE) 13:02:19 437.485
AO-7 18 Dec 13:04:18 13:06:37 11° 50° (NE) 13:08:56 29.400- 29.500
Gurwin Techsat 1B 18 Dec 13:04:44 13:09:25 33° 70° (ENE) 13:14:06 435.225
HORYU 2 18 Dec 13:08:46 13:09:39 11° 64° (ENE) 13:10:33 437.375
RS-15 18 Dec 13:08:57 13:19:15 45° 309° (NW) 13:29:39 29.354- 29.394
PCSat 18 Dec 13:09:39 13:14:33 37° 109° (ESE) 13:19:29 145.827
Oscar 19 18 Dec 13:13:14 13:18:03 42° 261° (W) 13:22:56 437.125/150
AUBIESAT-1 18 Dec 13:13:47 13:17:02 21° 98° (E) 13:20:04 437.475
ITAMSAT 1 18 Dec 13:23:09 13:28:20 86° 76° (ENE) 13:33:32 435.822/435.867
SRMSAT 18 Dec 13:28:15 13:31:00 13° 167° (SSE) 13:33:45 437.500
BEESAT 2 18 Dec 13:31:57 13:36:02 80° 299° (WNW) 13:40:12 435.950
YUBILEINY 18 Dec 13:32:14 13:33:59 11° 284° (WNW) 13:35:45 435.215
M-CUBED/EXP-1 PRIME 18 Dec 13:36:55 13:41:07 46° 103° (ESE) 13:44:56 437.505
ITUPSAT 1 18 Dec 13:46:02 13:50:41 55° 286° (WNW) 13:55:19 437.325
SWISSCUBE 18 Dec 13:46:38 13:51:13 48° 287° (WNW) 13:55:46 437.505
ISS 18 Dec 14:03:33 14:06:47 50° 320° (NW) 14:10:00 145.825
BEESAT 18 Dec 14:12:35 14:16:38 28° 290° (WNW) 14:20:39 436.000
JUGNU 18 Dec 14:16:22 14:20:30 19° 180° (S) 14:24:38 437.505
KKS-1 18 Dec 14:16:54 14:21:21 64° 101° (ESE) 14:25:47 437.445
STARS 18 Dec 14:18:31 14:22:44 42° 99° (E) 14:26:57 437.465
AIST 2 18 Dec 14:25:43 14:29:46 45° 302° (WNW) 14:33:53 435.215
JAS-2 18 Dec 14:30:10 14:34:00 15° 61° (ENE) 14:37:43 435.910
BEESAT 3 18 Dec 14:34:09 14:36:47 16° 310° (NW) 14:39:27 437.485
HORYU 2 18 Dec 14:41:20 14:45:44 62° 259° (W) 14:50:11 437.375
Gurwin Techsat 1B 18 Dec 14:44:59 14:49:20 26° 264° (W) 14:53:43 435.225
AUBIESAT-1 18 Dec 14:48:20 14:51:57 26° 295° (WNW) 14:55:19 437.475
AO-7 18 Dec 14:49:35 14:57:43 63° 69° (ENE) 15:05:56 29.400- 29.500
PCSat 18 Dec 14:53:29 14:57:59 27° 305° (NW) 15:02:32 145.827
M-CUBED/EXP-1 PRIME 18 Dec 15:13:27 15:15:35 14° 300° (WNW) 15:17:39 437.505
SRMSAT 18 Dec 15:15:25 15:19:28 19° 177° (S) 15:23:30 437.500
GONETS M04 18 Dec 15:29:20 15:36:00 24° 70° (ENE) 15:42:35
RS-15 18 Dec 15:30:25 15:35:34 14° 339° (NNW) 15:40:47 29.354- 29.394
STARS 18 Dec 15:56:20 15:58:50 15° 293° (WNW) 16:01:19 437.465
KKS-1 18 Dec 15:56:47 15:57:24 10° 296° (WNW) 15:58:01 437.445
Cubesat XI-IV 18 Dec 16:03:35 16:06:06 14° 63° (ENE) 16:08:38 437.490
JUGNU 18 Dec 16:05:26 16:08:50 16° 190° (S) 16:12:13 437.505
JAS-2 18 Dec 16:10:19 16:18:08 85° 76° (ENE) 16:25:25 435.910
AIST 1 18 Dec 16:12:35 16:16:54 59° 94° (E) 16:21:13
CUTE-I 18 Dec 16:35:18 16:39:44 28° 68° (ENE) 16:44:10 437.470
AO-7 18 Dec 16:44:30 16:50:54 24° 264° (W) 16:57:21 29.400- 29.500
MOZHAYETS 4 18 Dec 16:46:19 16:50:58 82° 102° (ESE) 16:55:33
SRMSAT 18 Dec 17:04:12 17:07:57 17° 187° (S) 17:11:42 437.500
STRAND 1 18 Dec 17:23:42 17:24:15 10° 91° (E) 17:24:47 437.568
GONETS M04 18 Dec 17:24:47 17:33:23 64° 268° (W) 17:41:55
Cubesat XI-IV 18 Dec 17:40:16 17:45:34 67° 258° (WSW) 17:50:53 437.490
RS-15 18 Dec 17:50:23 17:55:17 13° 19° (NNE) 18:00:14 29.354- 29.394
JAS-2 18 Dec 17:59:14 18:03:34 16° 268° (W) 18:07:48 435.910
CUBESAT XI-V 18 Dec 18:03:20 18:07:33 35° 98° (E) 18:11:44 437.345
CUTE-I 18 Dec 18:14:58 18:19:38 31° 263° (W) 18:24:20 437.470
PRISM 18 Dec 18:19:26 18:23:32 61° 285° (WNW) 18:27:36 437.425
HO-68 18 Dec 18:44:20 18:49:53 25° 62° (ENE) 18:55:26 435.675
MaSat-1 18 Dec 18:54:42 18:57:07 56° 248° (WSW) 18:59:41 437.345
STRAND 1 18 Dec 18:58:47 19:03:51 72° 285° (WNW) 19:08:55 437.568
BRITE-PL 18 Dec 19:03:02 19:05:35 16° 69° (ENE) 19:08:06 437.365/2234.400
CUSAT 1 18 Dec 19:25:27 19:31:56 28° 73° (ENE) 19:38:54 437.405
GOMX 1 18 Dec 19:39:13 19:42:49 29° 72° (ENE) 19:46:23 467.674
AAUSAT CUBESAT 2 18 Dec 19:40:01 19:43:27 25° 71° (ENE) 19:46:55 437.432
CUBESAT XI-V 18 Dec 19:41:31 19:44:41 19° 292° (WNW) 19:47:51 437.345
CANX-2 18 Dec 19:45:15 19:49:23 52° 75° (ENE) 19:53:33 2200.000
UWE-3 18 Dec 20:01:23 20:01:39 10° 65° (ENE) 20:01:56 435.000/436.395/437.385
RS-15 18 Dec 20:01:29 20:12:00 42° 50° (NE) 20:22:53 29.354- 29.394
DANDE 18 Dec 20:06:10 20:13:35 48° 78° (ENE) 20:21:51 436.750
COMPASS 1 18 Dec 20:12:57 20:17:08 75° 76° (ENE) 20:21:22 437.405
DOVE 4 18 Dec 20:13:45 20:17:48 54° 75° (ENE) 20:21:51 437.250
SEEDS 18 Dec 20:15:36 20:19:49 84° 258° (WSW) 20:24:06 437.485
CUTE 1.7 + AOD 2 18 Dec 20:16:16 20:20:29 70° 259° (W) 20:24:46 437.475
SO-50 18 Dec 20:16:30 20:20:17 27° 111° (ESE) 20:24:09 436.795
DX 1 18 Dec 20:19:50 20:23:35 29° 71° (ENE) 20:27:19 434.975-435.025
HO-68 18 Dec 20:30:04 20:37:04 56° 258° (WSW) 20:44:08 435.675
ISS 18 Dec 20:34:45 20:37:44 32° 37° (NE) 20:40:43 145.825
BRITE-PL 18 Dec 20:40:02 20:43:52 32° 262° (W) 20:47:37 437.365/2234.400
DELFI C3 18 Dec 20:42:10 20:46:10 55° 75° (ENE) 20:50:13 145.870
Oscar 11 18 Dec 20:45:20 20:49:39 75° 76° (ENE) 20:53:59 145.826/435.025
50 SAT 18 Dec 20:47:07 20:49:01 13° 67° (ENE) 20:50:57 437.505
CUBEBUG 2 18 Dec 20:51:10 20:55:10 50° 75° (ENE) 20:59:16 437.445
HUMSAT D 18 Dec 20:52:06 20:55:07 20° 69° (ENE) 20:58:09 437.325/437.525
UKube-1 18 Dec 20:52:31 20:56:49 70° 75° (ENE) 21:01:09 .
CINEMA 3 18 Dec 20:54:12 20:58:19 84° 258° (WSW) 21:02:32 145.822/145.860
ESTCUBE 1 18 Dec 21:03:52 21:04:52 11° 65° (ENE) 21:05:52 437.505/2401.250
VELOX 1 18 Dec 21:05:41 21:09:31 30° 71° (ENE) 21:13:21 145.980
CUSAT 1 18 Dec 21:07:35 21:15:14 60° 266° (W) 21:23:34 437.405
ZACube-1 18 Dec 21:10:35 21:14:40 61° 76° (ENE) 21:18:51 437.345
AAUSAT CUBESAT 2 18 Dec 21:15:49 21:19:02 21° 265° (W) 21:22:17 437.432
GOMX 1 18 Dec 21:18:14 21:20:59 17° 265° (W) 21:23:43 467.674
BEESAT 3 18 Dec 21:19:58 21:20:55 11° 47° (NE) 21:21:52 437.485
CANX-2 18 Dec 21:25:11 21:25:35 10° 269° (W) 21:26:00 2200.000
UNISAT 6 18 Dec 21:27:36 21:30:32 16° 94° (E) 21:33:27 437.425
UWE-3 18 Dec 21:33:35 21:37:39 55° 260° (W) 21:41:48 435.000/436.395/437.385
FUNcube-1 18 Dec 21:37:58 21:42:03 60° 260° (W) 21:46:14 145.935
AISAT 18 Dec 21:47:00 21:51:26 86° 257° (WSW) 21:55:52 437.250
DANDE 18 Dec 21:49:57 21:56:51 35° 270° (W) 22:04:26 436.750
DUCHIFAT 1 18 Dec 21:52:37 21:55:26 17° 95° (E) 21:58:15 145.980
BEESAT 2 18 Dec 21:56:01 21:59:19 22° 53° (NE) 22:02:34 435.950
DX 1 18 Dec 21:56:36 21:59:47 20° 264° (W) 22:02:59 434.975-435.025
SO-50 18 Dec 21:56:52 22:00:43 27° 307° (NW) 22:04:41 436.795
ANTELSAT 18 Dec 21:58:08 22:02:28 36° 98° (E) 22:06:48 437.575/2403.000
CUBEBUG 1 18 Dec 22:00:37 22:04:47 44° 74° (ENE) 22:08:56 437.445
BUGSAT 1 18 Dec 22:01:33 22:04:09 16° 95° (E) 22:06:45 437.445
PCSat 18 Dec 22:02:05 22:05:18 16° 50° (NE) 22:08:31 145.827
QB50P2 18 Dec 22:04:06 22:07:37 24° 96° (E) 22:11:06 145.880/145.840
ISS 18 Dec 22:11:48 22:14:08 18° 231° (SW) 22:16:27 145.825
POLYITAN 1 18 Dec 22:11:58 22:15:45 30° 98° (E) 22:19:33 437.675
RS-15 18 Dec 22:13:42 22:24:37 55° 249° (WSW) 22:36:03 29.354- 29.394
NANOSAT C BR1 18 Dec 22:15:56 22:19:48 33° 98° (E) 22:23:39 145.865
50 SAT 18 Dec 22:20:09 22:23:52 38° 262° (W) 22:27:39 437.505
HUMSAT D 18 Dec 22:27:17 22:30:44 26° 264° (W) 22:34:13 437.325/437.525
QB50P1 18 Dec 22:29:46 22:33:54 50° 100° (E) 22:38:03 145.935-145.965
YUBILEINY 18 Dec 22:32:02 22:38:42 25° 83° (E) 22:45:20 435.215
TIGRISAT 18 Dec 22:34:39 22:39:23 89° 282° (WNW) 22:44:06 435.000
ESTCUBE 1 18 Dec 22:36:39 22:41:09 64° 259° (W) 22:45:40 437.505/2401.250
VELOX 1 18 Dec 22:42:50 22:46:05 20° 265° (W) 22:49:20 145.980
AIST 2 18 Dec 22:51:03 22:55:04 38° 57° (ENE) 22:59:01 435.215
BEESAT 3 18 Dec 22:55:25 22:59:34 72° 243° (WSW) 23:03:39 437.485
POPSAT HIP 1 18 Dec 22:58:07 23:02:22 72° 284° (WNW) 23:06:37 437.405
UNISAT 6 18 Dec 23:03:00 23:07:26 42° 287° (WNW) 23:11:52 437.425
SWISSCUBE 18 Dec 23:15:17 23:17:00 12° 64° (ENE) 23:18:43 437.505
ITUPSAT 1 18 Dec 23:15:47 23:16:42 11° 63° (ENE) 23:17:38 437.325
SPROUT 18 Dec 23:16:22 23:20:37 73° 76° (ENE) 23:24:53 437.525
TISAT 1 18 Dec 23:19:28 23:23:41 88° 78° (ENE) 23:27:54 437.305
O/OREOS (USA 219) 18 Dec 23:21:10 23:21:57 10° 98° (E) 23:22:44 437.305
DUCHIFAT 1 18 Dec 23:27:33 23:31:19 32° 288° (WNW) 23:35:05 145.980
BEESAT 2 18 Dec 23:33:56 23:37:32 28° 248° (WSW) 23:41:05 435.950
ANTELSAT 18 Dec 23:35:36 23:38:58 20° 292° (WNW) 23:42:21 437.575/2403.000
BUGSAT 1 18 Dec 23:36:07 23:39:40 30° 288° (WNW) 23:43:13 437.445
BEESAT 18 Dec 23:38:46 23:42:12 20° 68° (ENE) 23:45:39 436.000
CUBEBUG 1 18 Dec 23:39:20 23:41:20 13° 267° (W) 23:43:19 437.445
QB50P2 18 Dec 23:40:02 23:43:23 23° 290° (WNW) 23:46:44 145.880/145.840
PCSat 18 Dec 23:43:49 23:49:13 69° 247° (WSW) 23:54:34 145.827
POLYITAN 1 18 Dec 23:48:28 23:51:27 19° 291° (WNW) 23:54:27 437.675
NANOSAT C BR1 18 Dec 23:52:38 23:55:23 17° 292° (WNW) 23:58:08 145.865
AUBIESAT-1 18 Dec 23:59:00 00:02:34 21° 63° (ENE) 00:06:13 437.475
QB50P1 19 Dec 00:07:47 00:09:20 12° 294° (WNW) 00:10:52 145.935-145.965
M-CUBED/EXP-1 PRIME 19 Dec 00:22:09 00:26:35 40° 67° (ENE) 00:31:11 437.505
YUBILEINY 19 Dec 00:26:12 00:34:47 59° 280° (W) 00:43:23 435.215
AIST 2 19 Dec 00:30:44 00:33:20 16° 251° (WSW) 00:35:54 435.215
ITUPSAT 1 19 Dec 00:49:09 00:53:56 72° 258° (WSW) 00:58:45 437.325
SWISSCUBE 19 Dec 00:49:31 00:54:16 64° 259° (WSW) 00:59:03 437.505
O/OREOS (USA 219) 19 Dec 00:56:25 01:00:47 54° 292° (WNW) 01:05:09 437.305
KKS-1 19 Dec 01:11:58 01:16:01 37° 72° (ENE) 01:20:05 437.445
STARS 19 Dec 01:12:53 01:16:25 24° 70° (ENE) 01:19:58 437.465
BEESAT 19 Dec 01:15:22 01:19:45 36° 262° (W) 01:24:10 436.000
Gurwin Techsat 1B 19 Dec 01:25:24 01:28:49 17° 93° (E) 01:32:14 435.225
Oscar 19 19 Dec 01:28:03 01:33:16 88° 284° (WNW) 01:38:28 437.125/150
AUBIESAT-1 19 Dec 01:32:47 01:37:11 39° 258° (WSW) 01:41:45 437.475
ITAMSAT 1 19 Dec 01:39:53 01:44:45 41° 99° (E) 01:49:36 435.822/435.867
M-CUBED/EXP-1 PRIME 19 Dec 01:58:15 02:01:40 20° 262° (W) 02:05:10 437.505
AIST 1 19 Dec 02:27:02 02:27:24 10° 72° (ENE) 02:27:46
HORYU 2 19 Dec 02:36:46 02:40:51 33° 98° (E) 02:44:54 437.375
STARS 19 Dec 02:49:15 02:52:47 24° 264° (W) 02:56:20 437.465
KKS-1 19 Dec 02:50:00 02:52:44 16° 266° (W) 02:55:29 437.445
